Location: East Irvine
(33.6759°N, 117.7598°W)
Time: 01:17:00
(UTC+00:00)

SAR-Lupe-1 - Pass Details

Date: 15 November 2025
Orbit: 477 x 487 km, 98.1° (Epoch: 19 February)

Event Time Altitude Azimuth Distance (km) Brightness Sun altitude
Rises 01:32:54 0° 168° (SSE) 2,516 7.8 -9.6°
Reaches altitude 10° 01:34:57 10° 169° (S) 1,643 6.8 -10.0°
Maximum altitude 01:38:28 84° 257° (WSW) 486 4.1 -10.7°
Drops below altitude 10° 01:42:02 10° 346° (NNW) 1,659 6.8 -11.4°
Sets 01:44:06 0° 347° (NNW) 2,543 7.7 -11.8°
